FDX3HT SCGZ-SCRM

Flight info

Callsign FDX3HT
Flight time 1h 33m
Altitude 23000
Route GEBOS W56 MIDAL/N0403F310 DCT KRILL PAMES1
Aircraft RJ1H/M-SDFGIRWY/LB1

Departure

Time 2026-05-07 13:20
Airport Guardia Marina Zañartu Airport (SCGZ)

Arrival

Time 2026-05-07 14:53
Airport Teniente Rodolfo Marsh Martin Airport (SCRM)
Time Latitude Longitude Altitude Speed Heading
2026-05-07 12:30 -54.93211 -67.61739 64 ft 0 kts 251°
2026-05-07 13:15 -54.93211 -67.61743 64 ft 2 kts 264°
2026-05-07 13:16 -54.93200 -67.61764 62 ft 5 kts 352°
2026-05-07 13:16 -54.93122 -67.61818 65 ft 19 kts 300°
2026-05-07 13:16 -54.93107 -67.62107 71 ft 28 kts 271°
2026-05-07 13:16 -54.93099 -67.62507 76 ft 37 kts 270°
2026-05-07 13:17 -54.93098 -67.62994 92 ft 43 kts 270°
2026-05-07 13:17 -54.93096 -67.63537 106 ft 45 kts 271°
2026-05-07 13:17 -54.93087 -67.63724 108 ft 8 kts 123°
2026-05-07 13:17 -54.93096 -67.63708 106 ft 2 kts 110°
2026-05-07 13:18 -54.93096 -67.63701 108 ft 0 kts 89°
2026-05-07 13:18 -54.93093 -67.63756 108 ft 1 kts 91°
2026-05-07 13:18 -54.93092 -67.63745 108 ft 0 kts 89°
2026-05-07 13:19 -54.93092 -67.63641 106 ft 33 kts 91°
2026-05-07 13:19 -54.93099 -67.62866 87 ft 93 kts 91°
2026-05-07 13:19 -54.93113 -67.61475 120 ft 128 kts 90°
2026-05-07 13:19 -54.93123 -67.59851 296 ft 142 kts 90°
2026-05-07 13:20 -54.93150 -67.58084 635 ft 151 kts 93°
2026-05-07 13:20 -54.93280 -67.56271 1119 ft 150 kts 101°
2026-05-07 13:20 -54.93578 -67.54565 1582 ft 153 kts 114°
2026-05-07 13:20 -54.94079 -67.52742 1731 ft 185 kts 114°
2026-05-07 13:21 -54.94841 -67.50826 2052 ft 204 kts 145°
2026-05-07 13:21 -54.96152 -67.49694 2424 ft 217 kts 149°
2026-05-07 13:21 -54.97165 -67.47709 2720 ft 228 kts 116°
2026-05-07 13:21 -54.98047 -67.45351 2982 ft 241 kts 138°
2026-05-07 13:22 -54.99442 -67.43658 3368 ft 246 kts 144°
2026-05-07 13:22 -55.00815 -67.41863 3816 ft 249 kts 140°
2026-05-07 13:22 -55.02188 -67.39992 4197 ft 253 kts 141°
2026-05-07 13:22 -55.03533 -67.38204 4684 ft 255 kts 139°
2026-05-07 13:23 -55.04970 -67.36380 5171 ft 254 kts 140°
2026-05-07 13:23 -55.06421 -67.34560 5461 ft 262 kts 140°
2026-05-07 13:23 -55.07899 -67.32690 5873 ft 262 kts 141°
2026-05-07 13:23 -55.09370 -67.30803 6255 ft 263 kts 140°
2026-05-07 13:24 -55.10792 -67.28941 6602 ft 264 kts 140°
2026-05-07 13:24 -55.12122 -67.27171 6883 ft 267 kts 140°
2026-05-07 13:24 -55.13585 -67.25208 7176 ft 270 kts 140°
2026-05-07 13:24 -55.15063 -67.23248 7466 ft 271 kts 140°
2026-05-07 13:25 -55.16573 -67.21238 7759 ft 273 kts 140°
2026-05-07 13:25 -55.18090 -67.19219 8030 ft 275 kts 140°
2026-05-07 13:25 -55.19618 -67.17191 8286 ft 277 kts 140°
2026-05-07 13:25 -55.21158 -67.15144 8545 ft 279 kts 140°
2026-05-07 13:26 -55.22704 -67.13083 8814 ft 280 kts 140°
2026-05-07 13:26 -55.24257 -67.11000 9075 ft 282 kts 141°
2026-05-07 13:26 -55.25801 -67.08941 9330 ft 283 kts 141°
2026-05-07 13:26 -55.27373 -67.06836 9577 ft 285 kts 141°
2026-05-07 13:27 -55.28953 -67.04711 9824 ft 287 kts 141°
2026-05-07 13:27 -55.30490 -67.02629 10075 ft 288 kts 141°
2026-05-07 13:27 -55.32085 -67.00472 10303 ft 290 kts 142°
2026-05-07 13:27 -55.33687 -66.98299 10550 ft 292 kts 142°
2026-05-07 13:28 -55.35297 -66.96110 10781 ft 293 kts 142°
2026-05-07 13:28 -55.36911 -66.93906 11015 ft 295 kts 142°
2026-05-07 13:28 -55.38533 -66.91688 11225 ft 297 kts 142°
2026-05-07 13:28 -55.40163 -66.89438 11404 ft 300 kts 142°
2026-05-07 13:29 -55.41807 -66.87169 11408 ft 309 kts 143°
2026-05-07 13:29 -55.43518 -66.84796 11425 ft 317 kts 143°
2026-05-07 13:29 -55.45272 -66.82362 11442 ft 324 kts 143°
2026-05-07 13:29 -55.47057 -66.79869 11459 ft 331 kts 143°
2026-05-07 13:30 -55.48867 -66.77330 11588 ft 333 kts 144°
2026-05-07 13:30 -55.50671 -66.74771 11682 ft 333 kts 143°
2026-05-07 13:30 -55.52487 -66.72199 11801 ft 335 kts 144°
2026-05-07 13:30 -55.54307 -66.69599 11963 ft 337 kts 143°
2026-05-07 13:31 -55.56107 -66.67036 12120 ft 338 kts 143°
2026-05-07 13:31 -55.57933 -66.64430 12263 ft 338 kts 143°
2026-05-07 13:31 -55.59763 -66.61809 12372 ft 339 kts 143°
2026-05-07 13:31 -55.61596 -66.59172 12496 ft 340 kts 143°
2026-05-07 13:32 -55.63438 -66.56531 12614 ft 341 kts 143°
2026-05-07 13:32 -55.65272 -66.53868 12722 ft 342 kts 142°
2026-05-07 13:32 -55.67115 -66.51191 12832 ft 343 kts 143°
2026-05-07 13:32 -55.68980 -66.48540 12938 ft 344 kts 145°
2026-05-07 13:33 -55.70913 -66.46173 13053 ft 343 kts 149°
2026-05-07 13:33 -55.72918 -66.43873 13094 ft 343 kts 153°
2026-05-07 13:33 -55.75012 -66.41879 13139 ft 343 kts 155°
2026-05-07 13:33 -55.77157 -66.39996 13276 ft 344 kts 156°
2026-05-07 13:34 -55.79274 -66.37983 13473 ft 347 kts 154°
2026-05-07 13:34 -55.83409 -66.33643 13630 ft 347 kts 152°
2026-05-07 13:34 -55.85465 -66.31376 13691 ft 349 kts 151°
2026-05-07 13:35 -55.87505 -66.29159 13790 ft 349 kts 151°
2026-05-07 13:35 -55.89576 -66.26903 13909 ft 350 kts 151°
2026-05-07 13:35 -55.91652 -66.24630 14005 ft 351 kts 152°
2026-05-07 13:35 -55.93735 -66.22356 14176 ft 352 kts 152°
2026-05-07 13:36 -55.95820 -66.20052 14307 ft 352 kts 151°
2026-05-07 13:36 -55.97905 -66.17753 14394 ft 353 kts 151°
2026-05-07 13:36 -56.00002 -66.15430 14571 ft 355 kts 151°
2026-05-07 13:36 -56.02104 -66.13100 14897 ft 357 kts 151°
2026-05-07 13:37 -56.04222 -66.10775 15193 ft 359 kts 152°
2026-05-07 13:37 -56.06335 -66.08478 15489 ft 361 kts 151°
2026-05-07 13:37 -56.08479 -66.06099 15772 ft 364 kts 151°
2026-05-07 13:37 -56.10637 -66.03703 16057 ft 366 kts 152°
2026-05-07 13:38 -56.12749 -66.01395 16332 ft 368 kts 152°
2026-05-07 13:38 -56.14933 -65.98980 16603 ft 370 kts 151°
2026-05-07 13:38 -56.17127 -65.96521 16869 ft 373 kts 151°
2026-05-07 13:38 -56.19340 -65.94070 17147 ft 375 kts 152°
2026-05-07 13:39 -56.21567 -65.91614 17429 ft 377 kts 151°
2026-05-07 13:39 -56.23764 -65.89148 17693 ft 378 kts 151°
2026-05-07 13:39 -56.26025 -65.86600 17965 ft 380 kts 152°
2026-05-07 13:39 -56.28283 -65.84093 18222 ft 382 kts 152°
2026-05-07 13:40 -56.30552 -65.81584 18495 ft 383 kts 152°
2026-05-07 13:40 -56.32815 -65.79050 18786 ft 384 kts 151°
2026-05-07 13:40 -56.35079 -65.76485 19041 ft 385 kts 151°
2026-05-07 13:40 -56.37356 -65.73913 19291 ft 386 kts 152°
2026-05-07 13:41 -56.39694 -65.71522 19567 ft 386 kts 155°
2026-05-07 13:41 -56.42041 -65.69314 19828 ft 386 kts 156°
2026-05-07 13:41 -56.44444 -65.67148 20088 ft 387 kts 157°
2026-05-07 13:41 -56.46851 -65.64967 20333 ft 388 kts 156°
2026-05-07 13:42 -56.49270 -65.62775 20581 ft 389 kts 157°
2026-05-07 13:42 -56.51691 -65.60582 20846 ft 389 kts 157°
2026-05-07 13:42 -56.54112 -65.58357 21065 ft 391 kts 156°
2026-05-07 13:42 -56.56534 -65.56101 21319 ft 392 kts 156°
2026-05-07 13:43 -56.58962 -65.53831 21523 ft 394 kts 156°
2026-05-07 13:43 -56.61361 -65.51573 21766 ft 394 kts 156°
2026-05-07 13:43 -56.63800 -65.49281 21988 ft 395 kts 156°
2026-05-07 13:43 -56.66240 -65.46983 22215 ft 396 kts 156°
2026-05-07 13:44 -56.68690 -65.44683 22425 ft 397 kts 156°
2026-05-07 13:44 -56.71148 -65.42383 22639 ft 397 kts 156°
2026-05-07 13:44 -56.73614 -65.40093 22848 ft 399 kts 156°
2026-05-07 13:44 -56.76081 -65.37778 23054 ft 399 kts 156°
2026-05-07 13:45 -56.78553 -65.35459 23264 ft 401 kts 156°
2026-05-07 13:45 -56.81003 -65.33157 23472 ft 401 kts 156°
2026-05-07 13:45 -56.83490 -65.30825 23685 ft 402 kts 156°
2026-05-07 13:45 -56.85977 -65.28493 23885 ft 403 kts 156°
2026-05-07 13:46 -56.88476 -65.26149 24057 ft 404 kts 156°
2026-05-07 13:46 -56.90976 -65.23801 24236 ft 405 kts 156°
2026-05-07 13:46 -56.93486 -65.21426 24431 ft 406 kts 155°
2026-05-07 13:46 -56.95985 -65.19013 24606 ft 406 kts 155°
2026-05-07 13:47 -56.98498 -65.16595 24708 ft 409 kts 155°
2026-05-07 13:47 -57.00971 -65.14252 25073 ft 404 kts 155°
2026-05-07 13:47 -57.03459 -65.11861 25321 ft 403 kts 155°
2026-05-07 13:47 -57.05934 -65.09475 25552 ft 402 kts 155°
2026-05-07 13:48 -57.08409 -65.07093 25755 ft 401 kts 155°
2026-05-07 13:48 -57.10882 -65.04716 25961 ft 401 kts 155°
2026-05-07 13:48 -57.13362 -65.02360 26157 ft 401 kts 155°
2026-05-07 13:48 -57.15824 -64.99979 26354 ft 400 kts 155°
2026-05-07 13:49 -57.18289 -64.97583 26550 ft 400 kts 155°
2026-05-07 13:49 -57.20748 -64.95199 26735 ft 399 kts 155°
2026-05-07 13:49 -57.23182 -64.92877 26917 ft 399 kts 155°
2026-05-07 13:49 -57.25638 -64.90495 27124 ft 398 kts 155°
2026-05-07 13:50 -57.28085 -64.88116 27316 ft 398 kts 155°
2026-05-07 13:50 -57.30533 -64.85732 27494 ft 397 kts 155°
2026-05-07 13:50 -57.32975 -64.83349 27678 ft 397 kts 155°
2026-05-07 13:50 -57.35417 -64.80964 27859 ft 396 kts 155°
2026-05-07 13:51 -57.37856 -64.78581 28040 ft 396 kts 155°
2026-05-07 13:51 -57.40290 -64.76210 28207 ft 395 kts 155°
2026-05-07 13:51 -57.42688 -64.73873 28378 ft 395 kts 155°
2026-05-07 13:51 -57.45114 -64.71505 28544 ft 394 kts 155°
2026-05-07 13:52 -57.47546 -64.69126 28717 ft 394 kts 155°
2026-05-07 13:52 -57.49973 -64.66754 28880 ft 394 kts 155°
2026-05-07 13:52 -57.52396 -64.64385 29035 ft 393 kts 155°
2026-05-07 13:52 -57.54820 -64.62011 29194 ft 393 kts 155°
2026-05-07 13:53 -57.57238 -64.59640 29353 ft 393 kts 155°
2026-05-07 13:53 -57.59648 -64.57266 29504 ft 392 kts 154°
2026-05-07 13:53 -57.61970 -64.54941 29658 ft 392 kts 154°
2026-05-07 13:53 -57.64370 -64.52530 29810 ft 391 kts 154°
2026-05-07 13:54 -57.66740 -64.50185 29951 ft 391 kts 155°
2026-05-07 13:54 -57.69141 -64.47817 30088 ft 390 kts 154°
2026-05-07 13:54 -57.71536 -64.45411 30233 ft 390 kts 154°
2026-05-07 13:55 -57.76365 -64.40596 30251 ft 397 kts 155°
2026-05-07 13:55 -57.81266 -64.35647 30279 ft 404 kts 154°
2026-05-07 13:56 -57.86225 -64.30685 30298 ft 410 kts 154°
2026-05-07 13:56 -57.91264 -64.25558 30425 ft 412 kts 154°
2026-05-07 13:56 -57.93791 -64.23008 30541 ft 412 kts 155°
2026-05-07 13:57 -57.96320 -64.20479 30658 ft 412 kts 154°
2026-05-07 13:57 -57.98841 -64.17911 30766 ft 412 kts 154°
2026-05-07 13:57 -58.01363 -64.15364 30877 ft 411 kts 155°
2026-05-07 13:57 -58.03900 -64.12870 30990 ft 411 kts 155°
2026-05-07 13:58 -58.06400 -64.10458 31082 ft 406 kts 156°
2026-05-07 13:58 -58.11386 -64.05589 31109 ft 403 kts 155°
2026-05-07 13:59 -58.16356 -64.00662 31114 ft 403 kts 155°
2026-05-07 13:59 -58.21343 -63.95766 31117 ft 405 kts 155°
2026-05-07 14:00 -58.26310 -63.90822 31119 ft 406 kts 155°
2026-05-07 14:00 -58.31320 -63.85822 31119 ft 407 kts 155°
2026-05-07 14:01 -58.36335 -63.80852 31118 ft 406 kts 155°
2026-05-07 14:01 -58.41337 -63.75843 31116 ft 406 kts 155°
2026-05-07 14:02 -58.46311 -63.70873 31111 ft 406 kts 155°
2026-05-07 14:02 -58.51314 -63.65821 31110 ft 407 kts 155°
2026-05-07 14:03 -58.56311 -63.60758 31109 ft 406 kts 155°
2026-05-07 14:03 -58.61314 -63.55727 31107 ft 406 kts 155°
2026-05-07 14:04 -58.66297 -63.50655 31107 ft 405 kts 155°
2026-05-07 14:04 -58.71241 -63.45605 31110 ft 405 kts 155°
2026-05-07 14:05 -58.76220 -63.40512 31108 ft 405 kts 155°
2026-05-07 14:05 -58.81191 -63.35420 31102 ft 404 kts 155°
2026-05-07 14:06 -58.86149 -63.30325 31101 ft 404 kts 155°
2026-05-07 14:06 -58.91071 -63.25262 31097 ft 403 kts 155°
2026-05-07 14:07 -58.96026 -63.20158 31099 ft 403 kts 155°
2026-05-07 14:07 -59.00976 -63.15054 31099 ft 403 kts 155°
2026-05-07 14:08 -59.05086 -63.10795 31096 ft 403 kts 155°
2026-05-07 14:08 -59.10816 -63.04777 31096 ft 402 kts 154°
2026-05-07 14:09 -59.15745 -62.99611 31091 ft 402 kts 155°
2026-05-07 14:09 -59.19839 -62.95293 31089 ft 402 kts 154°
2026-05-07 14:10 -59.24761 -62.90084 31093 ft 402 kts 155°
2026-05-07 14:10 -59.30469 -62.84017 31086 ft 402 kts 154°
2026-05-07 14:11 -59.34587 -62.79652 31090 ft 402 kts 155°
2026-05-07 14:11 -59.39459 -62.74428 31087 ft 402 kts 154°
2026-05-07 14:12 -59.44374 -62.69195 31094 ft 402 kts 154°
2026-05-07 14:12 -59.50067 -62.63052 31083 ft 402 kts 155°
2026-05-07 14:13 -59.54175 -62.58622 31081 ft 402 kts 154°
2026-05-07 14:13 -59.59039 -62.53375 31082 ft 401 kts 154°
2026-05-07 14:14 -59.63926 -62.48070 31074 ft 401 kts 154°
2026-05-07 14:14 -59.68809 -62.42748 31083 ft 401 kts 154°
2026-05-07 14:15 -59.73696 -62.37422 31086 ft 400 kts 154°
2026-05-07 14:15 -59.78532 -62.32087 31085 ft 400 kts 154°
2026-05-07 14:16 -59.83405 -62.26753 31074 ft 400 kts 154°
2026-05-07 14:16 -59.88265 -62.21361 31077 ft 400 kts 154°
2026-05-07 14:17 -59.93134 -62.15992 31067 ft 400 kts 154°
2026-05-07 14:17 -59.97956 -62.10601 31076 ft 400 kts 154°
2026-05-07 14:18 -60.02822 -62.05233 31072 ft 399 kts 154°
2026-05-07 14:18 -60.07674 -61.99813 31064 ft 400 kts 154°
2026-05-07 14:19 -60.12529 -61.94360 31074 ft 400 kts 154°
2026-05-07 14:19 -60.17349 -61.88925 31070 ft 400 kts 154°
2026-05-07 14:20 -60.22207 -61.83489 31068 ft 400 kts 154°
2026-05-07 14:20 -60.27052 -61.78015 31065 ft 399 kts 154°
2026-05-07 14:21 -60.31889 -61.72513 31070 ft 399 kts 154°
2026-05-07 14:21 -60.36693 -61.67035 31059 ft 399 kts 154°
2026-05-07 14:22 -60.42337 -61.60593 31063 ft 399 kts 154°
2026-05-07 14:22 -60.46357 -61.56029 31068 ft 398 kts 154°
2026-05-07 14:23 -60.51179 -61.50504 31064 ft 398 kts 154°
2026-05-07 14:23 -60.55990 -61.44961 31054 ft 398 kts 154°
2026-05-07 14:24 -60.60764 -61.39445 31064 ft 397 kts 154°
2026-05-07 14:24 -60.65568 -61.33867 31066 ft 397 kts 154°
2026-05-07 14:25 -60.70366 -61.28281 31054 ft 397 kts 154°
2026-05-07 14:25 -60.75158 -61.22691 31050 ft 397 kts 154°
2026-05-07 14:26 -60.79950 -61.17091 31052 ft 396 kts 154°
2026-05-07 14:26 -60.84700 -61.11513 31052 ft 396 kts 154°
2026-05-07 14:27 -60.89474 -61.05888 31056 ft 396 kts 154°
2026-05-07 14:27 -60.94250 -61.00254 31051 ft 396 kts 154°
2026-05-07 14:28 -60.99006 -60.94590 31052 ft 395 kts 153°
2026-05-07 14:28 -61.03746 -60.88909 31049 ft 395 kts 154°
2026-05-07 14:29 -61.08481 -60.83260 31051 ft 396 kts 154°
2026-05-07 14:29 -61.13240 -60.77544 31051 ft 395 kts 154°
2026-05-07 14:30 -61.17977 -60.71799 31051 ft 395 kts 154°
2026-05-07 14:30 -61.22569 -60.65476 31050 ft 398 kts 147°
2026-05-07 14:31 -61.26904 -60.58305 31050 ft 399 kts 144°
2026-05-07 14:31 -61.31159 -60.51017 31052 ft 399 kts 144°
2026-05-07 14:32 -61.35463 -60.43747 31064 ft 398 kts 145°
2026-05-07 14:32 -61.39772 -60.36531 31051 ft 398 kts 145°
2026-05-07 14:33 -61.44077 -60.29279 31052 ft 397 kts 145°
2026-05-07 14:33 -61.48327 -60.22041 31052 ft 397 kts 145°
2026-05-07 14:34 -61.52625 -60.14776 31050 ft 397 kts 145°
2026-05-07 14:34 -61.56887 -60.07459 31041 ft 394 kts 145°
2026-05-07 14:34 -61.59018 -60.03840 30284 ft 396 kts 145°
2026-05-07 14:35 -61.61159 -60.00196 29573 ft 395 kts 145°
2026-05-07 14:35 -61.63283 -59.96527 28802 ft 396 kts 144°
2026-05-07 14:35 -61.65415 -59.92817 27958 ft 399 kts 144°
2026-05-07 14:35 -61.67528 -59.89137 27142 ft 400 kts 144°
2026-05-07 14:36 -61.69682 -59.85398 26287 ft 402 kts 144°
2026-05-07 14:36 -61.71845 -59.81652 25416 ft 404 kts 144°
2026-05-07 14:36 -61.74025 -59.77894 24692 ft 401 kts 144°
2026-05-07 14:36 -61.76125 -59.74268 24065 ft 387 kts 144°
2026-05-07 14:37 -61.78198 -59.70693 23470 ft 383 kts 144°
2026-05-07 14:37 -61.82244 -59.63661 22268 ft 376 kts 144°
2026-05-07 14:37 -61.84236 -59.60126 21681 ft 372 kts 144°
2026-05-07 14:38 -61.86220 -59.56634 21061 ft 369 kts 144°
2026-05-07 14:38 -61.88229 -59.53267 20469 ft 365 kts 148°
2026-05-07 14:38 -61.90183 -59.49856 19840 ft 367 kts 135°
2026-05-07 14:38 -61.91782 -59.45634 19254 ft 366 kts 131°
2026-05-07 14:39 -61.93348 -59.41402 18680 ft 363 kts 133°
2026-05-07 14:39 -61.94948 -59.37275 18106 ft 360 kts 133°
2026-05-07 14:39 -61.96542 -59.33191 17548 ft 358 kts 133°
2026-05-07 14:39 -61.98130 -59.29134 17019 ft 355 kts 133°
2026-05-07 14:40 -61.99629 -59.25294 16499 ft 352 kts 133°
2026-05-07 14:40 -62.01189 -59.21302 16000 ft 349 kts 134°
2026-05-07 14:40 -62.02726 -59.17353 15568 ft 343 kts 133°
2026-05-07 14:40 -62.04244 -59.13435 15040 ft 341 kts 133°
2026-05-07 14:41 -62.05749 -59.09549 14504 ft 339 kts 133°
2026-05-07 14:41 -62.07076 -59.05390 13977 ft 341 kts 122°
2026-05-07 14:41 -62.08152 -59.00894 13456 ft 340 kts 120°
2026-05-07 14:41 -62.09209 -58.96401 13011 ft 337 kts 120°
2026-05-07 14:42 -62.10249 -58.91932 12527 ft 335 kts 119°
2026-05-07 14:42 -62.11260 -58.87535 12037 ft 333 kts 119°
2026-05-07 14:42 -62.12274 -58.83102 11551 ft 331 kts 119°
2026-05-07 14:42 -62.13281 -58.78694 11075 ft 329 kts 119°
2026-05-07 14:43 -62.14281 -58.74316 10617 ft 327 kts 119°
2026-05-07 14:43 -62.15277 -58.69957 10160 ft 325 kts 118°
2026-05-07 14:43 -62.16263 -58.65627 9719 ft 324 kts 119°
2026-05-07 14:43 -62.17251 -58.61326 9287 ft 321 kts 119°
2026-05-07 14:44 -62.18219 -58.57106 8863 ft 319 kts 119°
2026-05-07 14:44 -62.19193 -58.52869 8391 ft 317 kts 119°
2026-05-07 14:44 -62.20305 -58.48844 7931 ft 312 kts 133°
2026-05-07 14:44 -62.21814 -58.45564 7454 ft 307 kts 140°
2026-05-07 14:45 -62.23345 -58.42387 7141 ft 302 kts 139°
2026-05-07 14:45 -62.24825 -58.39341 7113 ft 287 kts 143°
2026-05-07 14:45 -62.26474 -58.37436 6861 ft 263 kts 174°
2026-05-07 14:45 -62.28196 -58.37865 6822 ft 245 kts 207°
2026-05-07 14:46 -62.29424 -58.40252 6592 ft 241 kts 242°
2026-05-07 14:46 -62.29860 -58.43702 6350 ft 241 kts 259°
2026-05-07 14:46 -62.30291 -58.47119 6108 ft 240 kts 245°
2026-05-07 14:46 -62.31152 -58.50180 5848 ft 226 kts 238°
2026-05-07 14:47 -62.31530 -58.53425 5089 ft 242 kts 275°
2026-05-07 14:47 -62.31247 -58.56912 5123 ft 232 kts 277°
2026-05-07 14:47 -62.30721 -58.60135 5124 ft 229 kts 298°
2026-05-07 14:47 -62.29866 -58.62980 5115 ft 224 kts 299°
2026-05-07 14:48 -62.29011 -58.65822 4873 ft 229 kts 298°
2026-05-07 14:48 -62.28180 -58.68773 4630 ft 233 kts 296°
2026-05-07 14:48 -62.27366 -58.71824 4389 ft 237 kts 296°
2026-05-07 14:48 -62.26560 -58.74924 4150 ft 239 kts 295°
2026-05-07 14:49 -62.25722 -58.77925 3720 ft 231 kts 301°
2026-05-07 14:49 -62.24823 -58.80637 3117 ft 217 kts 300°
2026-05-07 14:49 -62.23993 -58.83280 2504 ft 211 kts 301°
2026-05-07 14:49 -62.23158 -58.85830 1877 ft 211 kts 302°
2026-05-07 14:50 -62.22266 -58.88356 1476 ft 204 kts 313°
2026-05-07 14:50 -62.21254 -58.90190 1087 ft 179 kts 320°
2026-05-07 14:50 -62.20606 -58.92157 834 ft 148 kts 292°
2026-05-07 14:50 -62.20186 -58.94039 503 ft 137 kts 295°
2026-05-07 14:51 -62.19772 -58.95777 272 ft 127 kts 294°
2026-05-07 14:51 -62.19377 -58.97458 176 ft 128 kts 296°
2026-05-07 14:51 -62.18982 -58.99125 161 ft 110 kts 298°
2026-05-07 14:51 -62.18580 -59.00760 213 ft 130 kts 297°
2026-05-07 14:52 -62.18145 -59.02470 224 ft 140 kts 296°
2026-05-07 14:52 -62.17682 -59.04615 668 ft 170 kts 278°
2026-05-07 14:52 -62.18094 -59.07146 1091 ft 210 kts 221°
2026-05-07 14:52 -62.19558 -59.08054 1570 ft 248 kts 169°
2026-05-07 14:53 -62.20998 -59.05640 1453 ft 280 kts 124°
2026-05-07 14:53 -62.21853 -59.02122 1266 ft 266 kts 107°
2026-05-07 14:53 -62.22514 -59.00597 579 ft 0 kts 160°
2026-05-07 14:53 -62.22872 -59.00290 1463 ft 274 kts 152°
2026-05-07 14:54 -62.23211 -58.99962 189 ft 0 kts 147°
2026-05-07 14:54 -62.23233 -58.99932 2377 ft 279 kts 148°
2026-05-07 14:54 -62.24120 -58.98129 763 ft 920 kts 127°
2026-05-07 14:54 -62.24850 -58.93018 3767 ft 0 kts 131°
2026-05-07 14:55 -62.25726 -58.89356 706 ft 272 kts 136°
2026-05-07 14:55 -62.25739 -58.89147 2272 ft 0 kts 96°
2026-05-07 14:55 -62.25638 -58.87359 443 ft 160 kts 297°
2026-05-07 14:55 -62.25512 -58.88986 2078 ft 126 kts 260°
2026-05-07 14:56 -62.25610 -58.89945 127 ft 0 kts 230°
2026-05-07 14:56 -62.25467 -58.89582 1476 ft 52 kts 231°
2026-05-07 14:56 -62.26220 -58.88719 330 ft 5 kts 88°
2026-05-07 14:56 -62.26223 -58.87232 831 ft 0 kts 91°
2026-05-07 14:57 -62.26223 -58.87062 3428 ft 57 kts 94°
2026-05-07 14:57 -62.26262 -58.85555 956 ft 0 kts 96°
2026-05-07 14:57 -62.26310 -58.84324 323 ft 0 kts 95°
2026-05-07 14:57 -62.26350 -58.83353 389 ft 0 kts 96°
2026-05-07 14:58 -62.26388 -58.82507 1623 ft 297 kts 96°
2026-05-07 14:58 -62.24732 -58.81162 1463 ft 1471 kts 341°
2026-05-07 14:58 -62.22012 -58.87978 1339 ft 309 kts 307°
2026-05-07 14:58 -62.20816 -58.91173 1482 ft 232 kts 309°
2026-05-07 14:59 -62.19947 -58.93348 2477 ft 175 kts 310°
2026-05-07 14:59 -62.19039 -58.95319 1471 ft 210 kts 315°
2026-05-07 14:59 -62.18179 -58.96954 164 ft 0 kts 320°
2026-05-07 14:59 -62.18929 -58.99177 193 ft 0 kts 82°
2026-05-07 15:00 -62.18983 -58.98898 151 ft 43 kts 120°
2026-05-07 15:00 -62.19267 -58.97838 155 ft 118 kts 120°
2026-05-07 15:00 -62.19782 -58.96090 56 ft 145 kts 125°
2026-05-07 15:00 -62.18986 -58.98881 152 ft 0 kts 299°
2026-05-07 15:01 -62.19030 -58.98945 154 ft 23 kts 185°
2026-05-07 15:01 -62.19303 -58.98897 112 ft 58 kts 174°
2026-05-07 15:01 -62.19730 -58.98813 50 ft 58 kts 176°
2026-05-07 15:01 -62.20081 -58.98852 115 ft 37 kts 183°
2026-05-07 15:02 -62.20425 -58.98835 206 ft 48 kts 181°
2026-05-07 15:02 -62.20732 -58.98772 242 ft 26 kts 49°
2026-05-07 15:02 -62.20525 -58.98757 284 ft 60 kts 19°
2026-05-07 15:02 -62.19970 -58.98696 70 ft 97 kts 318°
2026-05-07 15:03 -62.19435 -58.99220 155 ft 30 kts 63°
2026-05-07 15:03 -62.19037 -58.99436 154 ft 81 kts 343°
2026-05-07 15:03 -62.18387 -58.99980 46 ft 102 kts 330°
2026-05-07 15:03 -62.17960 -59.00313 7 ft 40 kts 11°
2026-05-07 15:04 -62.17902 -59.00101 7 ft 12 kts 120°
2026-05-07 15:04 -62.19328 -58.97625 151 ft 382 kts 117°
2026-05-07 15:04 -62.19334 -58.97598 151 ft 0 kts 296°
2026-05-07 15:05 -62.19328 -58.97625 151 ft 0 kts 297°
2026-05-07 15:05 -62.19326 -58.97634 151 ft 9 kts 297°
2026-05-07 15:05 -62.19160 -58.98356 153 ft 96 kts 296°
2026-05-07 15:06 -62.18761 -59.00088 159 ft 157 kts 296°
2026-05-07 15:06 -62.18200 -59.02353 457 ft 176 kts 299°